CAPE
0 0 12 101 0 0 0 0 0 4 12 2 18 25 0 0 0 0 0 0 0 0 2 30 162 55 23 115 13 21 80 3 2 1 0 2 5 4 5 5 4 2 0 0 0 0 0 0 0
0 0 75 45 0 0 0 0 1 1 4 32 77 17 0 0 0 0 0 0 0 0 1 8 53 178 174 84 12 35 114 17 1 0 0 3 4 6 8 6 4 3 1 0 0 0 0 0 0
0 0 12 20 0 0 0 0 0 12 45 62 92 3 0 0 0 0 0 0 0 0 0 4 72 96 113 32 23 79 69 102 21 5 1 1 6 6 5 3 4 4 2 1 0 0 0 0 0
0 0 6 29 0 0 0 8 29 26 34 73 33 0 0 0 0 0 5 0 0 0 0 15 42 41 52 44 63 131 103 4 0 0 0 0 1 5 0 0 0 0 0 0 0 0 0 0 0
0 0 2 8 0 0 34 23 6 30 55 73 19 0 0 0 0 0 0 0 0 0 0 18 34 43 51 56 22 1 0 0 0 0 0 0 0 0 0 0 0 0 0 0 0 0 0 0 0
1 0 0 0 0 1 20 12 10 21 24 54 4 0 0 0 0 0 0 0 0 0 0 10 26 8 0 0 0 0 0 0 0 0 0 0 0 0 0 0 0 0 0 0 0 0 0 0 0
0 0 0 0 0 0 8 70 16 2 4 95 2 0 0 0 0 0 0 0 0 0 0 5 7 0 0 0 0 0 0 0 0 0 0 0 0 0 0 0 0 0 0 0 0 0 0 0 0
5 7 0 0 0 0 0 45 5 7 12 6 20 0 0 0 0 0 0 0 0 0 0 5 0 0 0 0 0 0 0 0 0 0 0 0 0 0 0 0 0 0 0 0 0 0 0 0 0
29 10 0 0 0 0 0 0 28 0 18 0 0 9 0 0 0 0 0 0 0 0 0 2 0 0 0 0 0 0 0 0 0 0 0 0 0 0 0 0 0 0 0 0 0 0 0 0 0
13 14 0 0 0 0 1 4 38 2 21 26 18 2 0 0 0 0 0 0 0 0 0 0 0 0 0 0 0 0 0 0 0 0 0 0 0 0 0 0 0 0 0 0 0 1 2 8 1
14 10 4 0 0 0 3 0 1 3 0 11 40 11 0 0 0 0 0 0 0 0 0 0 0 0 0 0 0 0 0 0 0 0 0 0 0 0 0 0 0 0 0 2 7 9 6 5 5
22 24 0 0 2 0 0 0 1 0 0 0 15 1 0 0 0 0 0 0 0 0 0 0 0 0 0 0 0 0 0 0 0 0 0 0 0 0 0 0 1 5 12 15 10 5 0 0 0
30 8 4 2 6 2 3 0 1 0 0 2 23 0 0 0 0 0 0 0 0 0 0 0 0 0 0 0 0 0 0 0 0 0 0 0 0 0 1 4 13 13 9 2 0 0 0 0 0
25 19 0 1 6 5 6 0 0 0 0 10 10 0 0 0 0 0 0 0 0 0 0 0 0 0 1 2 0 0 0 0 0 0 0 0 1 2 8 1 0 0 0 0 0 0 0 0 0
31 5 4 17 0 3 19 0 1 0 42 41 8 0 0 0 0 0 0 0 0 0 4 0 4 0 5 1 1 0 0 0 1 0 1 1 2 5 0 0 0 0 0 0 0 0 0 0 0
8 0 0 0 27 39 14 0 0 0 53 42 18 9 0 0 0 0 0 0 0 0 0 0 6 0 0 0 0 0 0 2 0 0 0 0 0 0 0 0 0 0 0 0 0 0 0 0 0
8 0 0 0 9 22 9 7 0 0 53 20 35 8 0 0 0 0 0 0 0 0 0 0 0 0 0 0 0 1 0 0 0 0 0 0 0 0 0 0 0 0 0 0 0 0 0 0 0
0 1 2 0 0 27 14 5 0 0 35 28 53 6 0 0 0 0 0 0 0 0 0 0 0 0 0 0 0 0 0 0 0 0 0 0 0 0 0 0 0 0 0 0 0 0 0 0 0
0 0 1 0 0 35 14 9 0 0 21 50 46 51 19 16 0 0 0 0 0 0 0 0 0 0 0 0 0 0 0 0 0 0 0 0 0 0 0 0 0 0 0 0 0 0 0 0 0
1 1 0 0 0 2 23 2 1 9 8 34 58 97 53 52 26 2 0 0 0 0 0 0 0 0 0 0 2 0 0 0 0 0 0 0 0 0 0 0 0 0 0 0 0 0 0 0 0
1 0 1 1 0 9 9 2 0 0 21 103 88 147 79 50 52 22 1 0 0 0 0 0 0 0 4 2 0 0 0 0 0 0 0 0 0 0 0 0 0 0 0 0 0 0 0 0 0
0 0 1 0 1 0 8 0 4 0 0 3 65 49 26 32 9 44 19 0 0 0 0 0 0 0 4 0 0 0 0 0 0 0 0 0 0 0 0 0 0 0 0 0 0 0 0 0 0
0 0 0 1 1 3 2 0 1 0 0 0 33 46 21 11 0 10 2 0 0 0 0 0 2 0 0 0 0 0 0 0 0 0 0 0 0 0 0 0 0 0 0 0 0 0 0 0 0
0 0 1 1 0 0 2 1 0 1 0 0 17 70 52 21 2 0 0 0 0 0 0 0 0 0 0 0 0 0 0 0 0 0 0 0 0 0 0 0 0 0 0 0 0 0 0 0 0
0 0 0 0 0 0 0 0 0 0 0 0 0 53 60 22 0 0 0 0 0 0 0 0 0 0 0 0 0 0 0 0 0 0 0 0 0 0 0 0 0 0 0 0 0 0 0 0 0
0 0 0 0 0 0 2 0 1 0 0 0 0 79 91 1 0 0 0 0 0 0 0 0 0 0 0 0 0 0 0 0 0 0 0 0 0 0 0 0 0 0 0 0 0 0 0 0 0
0 6 0 0 0 0 0 0 0 0 0 0 1 40 0 0 2 6 6 1 0 0 0 0 0 0 0 0 0 0 0 0 0 0 0 0 0 0 0 0 0 0 0 0 0 0 0 0 0
22 11 6 0 0 0 0 0 0 0 0 0 0 0 0 3 2 3 3 3 0 0 0 0 0 0 0 0 0 0 0 0 0 0 0 0 0 0 0 0 0 0 0 0 0 0 0 0 0
9 15 5 0 0 0 0 0 0 0 0 0 0 1 1 2 3 4 2 0 0 0 0 0 0 0 0 0 0 0 0 0 0 0 0 0 0 0 0 0 0 0 0 0 0 0 0 0 0
1 0 3 0 0 0 0 0 0 0 0 0 0 1 3 3 2 0 0 0 0 0 0 0 0 0 0 0 0 0 0 0 0 0 0 0 0 0 0 0 0 0 0 0 0 0 0 0 0
CIN
-0 -0 -244 -134 -0 -0 -0 -0 -0 -25 -32 -59 -74 -45 -0 -0 -0 -0 -0 -0 -0 -0 -133 -80 -28 -75 -125 -74 -166 -155 -105 -0 -0 -0 -0 -0 -0 -0 -0 -0 -0 -0 -0 -0 -0 -0 -0 -0 -0
-0 -12 -154 -101 -0 -0 -0 -0 -16 -17 -63 -117 -119 -143 -0 -0 -0 -0 -0 -0 -0 -0 -85 -172 -84 -31 -35 -86 -166 -133 -90 -181 -0 -0 -0 -0 -0 -0 -0 -0 -0 -0 -0 -0 -0 -0 -0 -0 -0
-0 -0 -112 -50 -0 -0 -0 -0 -0 -31 -78 -67 -80 -53 -0 -0 -0 -0 -0 -0 -0 -0 -0 -181 -81 -64 -57 -100 -127 -90 -99 -86 -193 -0 -0 -0 -0 -0 -0 -0 -0 -0 -0 -0 -0 -0 -0 -0 -0
-0 -0 -137 -34 -0 -0 -0 -49 -41 -41 -58 -79 -135 -1 -0 -0 -0 -0 -304 -0 -0 -0 -0 -154 -107 -104 -98 -100 -92 -65 -77 -186 -0 -0 -0 -0 -0 -0 -0 -0 -0 -0 -0 -0 -0 -0 -0 -0 -0
-0 -0 -13 -38 -0 -0 -70 -49 -72 -24 -46 -79 -117 -0 -0 -0 -0 -0 -0 -0 -0 -0 -0 -165 -109 -82 -101 -95 -138 -63 -0 -0 -0 -0 -0 -0 -0 -0 -0 -0 -0 -0 -0 -0 -0 -0 -0 -0 -0
-40 -0 -0 -0 -0 -103 -83 -54 -38 -60 -60 -105 -50 -0 -0 -0 -0 -0 -0 -0 -0 -0 -0 -4 -163 -73 -0 -0 -0 -0 -0 -0 -0 -0 -0 -0 -0 -0 -0 -0 -0 -0 -0 -0 -0 -0 -0 -0 -0
-27 -0 -0 -0 -0 -0 -90 -58 -29 -40 -28 -43 -28 -0 -0 -0 -0 -0 -0 -0 -0 -0 -0 -10 -5 -0 -0 -0 -0 -0 -0 -0 -0 -0 -0 -0 -0 -0 -0 -0 -0 -0 -0 -0 -0 -0 -0 -0 -0
-32 -24 -0 -0 -0 -0 -53 -65 -77 -74 -50 -146 -187 -0 -0 -0 -0 -0 -0 -0 -0 -0 -0 -3 -0 -0 -0 -0 -0 -0 -0 -0 -0 -0 -0 -0 -0 -0 -0 -0 -0 -0 -0 -0 -0 -0 -0 -0 -0
-41 -2 -0 -0 -0 -0 -0 -0 -46 -0 -50 -42 -8 -116 -0 -0 -0 -0 -0 -0 -0 -0 -0 -4 -0 -0 -0 -0 -0 -0 -0 -0 -0 -0 -0 -0 -0 -0 -0 -0 -0 -0 -0 -0 -0 -0 -0 -0 -0
-8 -0 -0 -0 -0 -0 -19 -43 -34 -22 -36 -72 -139 -83 -0 -0 -0 -0 -0 -0 -0 -0 -0 -0 -0 -0 -0 -0 -0 -0 -0 -0 -0 -0 -0 -0 -0 -0 -0 -0 -0 -0 -0 -0 -0 -11 -18 -23 -15
-1 -0 -3 -0 -0 -0 -104 -0 -6 -33 -3 -51 -89 -136 -0 -0 -0 -0 -0 -0 -0 -0 -0 -0 -0 -0 -0 -0 -0 -0 -0 -0 -0 -0 -0 -0 -0 -0 -0 -0 -0 -0 -0 -32 -24 -21 -14 -15 -13
-4 -3 -0 -0 -12 -0 -0 -0 -25 -0 -0 -0 -170 -128 -0 -0 -0 -0 -0 -0 -0 -0 -0 -0 -0 -0 -0 -0 -0 -0 -0 -0 -0 -0 -0 -0 -0 -0 -0 -0 -11 -26 -24 -18 -25 -33 -0 -0 -0
-7 -11 -15 -22 -27 -35 -28 -0 -20 -0 -0 -102 -206 -0 -0 -0 -0 -0 -0 -0 -0 -0 -0 -0 -0 -0 -0 -0 -0 -0 -0 -0 -0 -0 -0 -0 -0 -0 -8 -10 -12 -15 -26 -26 -0 -0 -0 -0 -0
-9 -7 -0 -7 -21 -20 -21 -0 -0 -0 -0 -146 -184 -0 -0 -0 -0 -0 -0 -0 -0 -0 -0 -0 -0 -0 -14 -12 -0 -0 -0 -0 -0 -0 -0 -1 -5 -6 -11 -15 -9 -0 -0 -0 -0 -0 -0 -0 -0
-2 -20 -0 -0 -0 -6 -7 -0 -30 -0 -103 -106 -189 -0 -0 -0 -0 -0 -0 -0 -0 -0 -11 -0 -9 -0 -14 -7 -10 -0 -0 -0 -11 -6 -18 -17 -13 -17 -0 -0 -0 -0 -0 -0 -0 -0 -0 -0 -0
-12 -0 -0 -0 -0 -0 -9 -0 -0 -0 -94 -62 -162 -241 -0 -0 -0 -0 -0 -0 -0 -0 -0 -0 -11 -0 -0 -0 -0 -0 -2 -20 -0 -0 -0 -0 -0 -0 -0 -0 -0 -0 -0 -0 -0 -0 -0 -0 -0
-0 -0 -0 -0 -0 -1 -1 -1 -0 -0 -46 -58 -117 -197 -0 -0 -0 -0 -0 -0 -0 -0 -0 -0 -1 -0 -0 -0 -0 -20 -0 -0 -0 -0 -0 -0 -0 -0 -0 -0 -0 -0 -0 -0 -0 -0 -0 -0 -0
-0 -0 -0 -0 -0 -0 -1 -1 -0 -0 -43 -58 -93 -164 -0 -0 -0 -0 -0 -0 -0 -0 -0 -0 -0 -0 -0 -0 -0 -0 -0 -0 -0 -0 -0 -0 -0 -0 -0 -0 -0 -0 -0 -0 -0 -0 -0 -0 -0
-0 -0 -0 -0 -0 -0 -0 -0 -0 -0 -38 -47 -67 -101 -136 -153 -0 -0 -0 -0 -0 -0 -0 -0 -0 -0 -0 -0 -0 -0 -0 -0 -0 -0 -0 -0 -0 -0 -0 -0 -0 -0 -0 -0 -0 -0 -0 -0 -0
-0 -0 -0 -0 -0 -0 -0 -2 -1 -42 -69 -54 -62 -77 -77 -74 -112 -29 -16 -0 -0 -0 -0 -0 -0 -0 -0 -1 -33 -0 -0 -0 -0 -0 -0 -0 -0 -0 -0 -0 -0 -0 -0 -0 -0 -0 -0 -0 -0
-0 -0 -0 -0 -0 -0 -0 -0 -0 -0 -42 -52 -64 -103 -100 -114 -95 -107 -9 -0 -0 -0 -0 -0 -0 -0 -5 -13 -0 -0 -0 -0 -0 -0 -0 -0 -0 -0 -0 -0 -0 -0 -0 -0 -0 -0 -0 -0 -0
-0 -0 -0 -0 -0 -0 -0 -0 -0 -0 -0 -4 -44 -63 -72 -69 -85 -77 -65 -0 -0 -0 -0 -0 -0 -0 -29 -0 -0 -0 -0 -0 -0 -0 -0 -0 -0 -0 -0 -0 -0 -0 -0 -0 -0 -0 -0 -0 -0
-0 -0 -0 -0 -0 -0 -0 -0 -0 -0 -0 -0 -20 -54 -92 -113 -0 -73 -38 -0 -0 -0 -0 -0 -58 -0 -60 -0 -0 -0 -0 -0 -0 -0 -0 -0 -0 -0 -0 -0 -0 -0 -0 -0 -0 -0 -0 -0 -0
-1 -0 -0 -0 -0 -0 -0 -0 -0 -0 -0 -0 -20 -34 -68 -91 -53 -0 -0 -0 -0 -0 -0 -0 -0 -0 -0 -0 -0 -0 -0 -0 -0 -0 -0 -0 -0 -0 -0 -0 -0 -0 -0 -0 -0 -0 -0 -0 -0
-0 -0 -0 -0 -0 -0 -0 -0 -0 -0 -0 -0 -1 -38 -56 -119 -0 -0 -0 -0 -0 -0 -0 -0 -0 -0 -0 -0 -0 -0 -0 -0 -0 -0 -0 -0 -0 -0 -0 -0 -0 -0 -0 -0 -0 -0 -0 -0 -0
-0 -0 -0 -0 -0 -0 -0 -0 -0 -0 -0 -0 -2 -59 -50 -3 -0 -0 -0 -0 -0 -0 -0 -0 -0 -0 -0 -0 -0 -0 -0 -0 -0 -0 -0 -0 -0 -0 -0 -0 -0 -0 -0 -0 -0 -0 -0 -0 -0
-0 -3 -1 -0 -0 -0 -0 -0 -0 -0 -7 -0 -5 -45 -0 -0 -0 -0 -0 -0 -0 -0 -0 -0 -0 -0 -0 -0 -0 -0 -0 -0 -0 -0 -0 -0 -0 -0 -0 -0 -0 -0 -0 -0 -0 -0 -0 -0 -0
-6 -10 -1 -0 -0 -0 -0 -0 -0 -0 -0 -0 -0 -0 -0 -0 -0 -0 -0 -0 -0 -0 -0 -0 -0 -0 -0 -0 -0 -0 -0 -0 -0 -0 -0 -0 -0 -0 -0 -0 -0 -0 -0 -0 -0 -0 -0 -0 -0
-5 -3 -19 -0 -0 -0 -0 -0 -0 -0 -0 -0 -0 -0 -0 -0 -0 -0 -0 -0 -0 -0 -0 -0 -0 -0 -0 -0 -0 -0 -0 -0 -0 -0 -0 -0 -0 -0 -0 -0 -0 -0 -0 -0 -0 -0 -0 -0 -0
-0 -0 -22 -0 -0 -0 -0 -0 -0 -0 -0 -0 -0 -0 -0 -0 -0 -0 -0 -0 -0 -0 -0 -0 -0 -0 -0 -0 -0 -0 -0 -0 -0 -0 -0 -0 -0 -0 -0 -0 -0 -0 -0 -0 -0 -0 -0 -0 -0
Wind_Speed
23 22 18 16 20 21 26 23 19 18 17 17 13 13 9 14 13 18 4 6 13 13 12 11 15 21 27 26 19 19 16 15 12 7 8 10 14 18 21 22 21 22 22 21 21 22 22 21 18
25 20 17 18 24 27 28 24 25 19 12 4 10 12 15 16 15 8 4 10 13 14 9 8 11 20 25 26 23 22 18 16 12 9 10 12 15 17 18 19 20 21 21 21 22 22 22 20 18
24 19 20 24 27 31 26 23 23 21 4 17 16 15 15 14 11 1 2 9 11 9 9 4 6 12 16 21 20 20 17 13 9 8 10 11 13 16 17 18 19 20 20 20 21 22 22 21 20
22 19 20 30 33 29 28 25 20 13 16 15 11 14 15 18 6 4 9 9 9 6 7 7 6 12 12 10 12 13 12 10 8 8 9 11 13 15 16 17 18 19 20 20 20 21 22 22 22
22 21 31 32 38 29 25 24 21 21 17 15 16 16 15 13 3 8 7 6 9 7 6 7 10 11 10 10 9 10 10 10 9 9 10 11 13 14 15 16 17 18 19 20 20 20 21 22 23
26 23 35 39 39 32 29 28 21 24 22 15 16 13 16 13 3 4 5 6 6 8 5 5 7 8 8 8 8 8 9 10 10 10 10 11 13 14 15 16 17 18 19 19 20 21 21 22 23
27 30 40 40 37 34 29 25 24 23 26 23 10 16 15 10 6 6 5 4 6 6 5 4 5 5 6 6 6 6 7 8 9 11 11 12 13 14 15 16 17 17 18 19 19 21 22 23 24
25 30 40 37 37 38 29 28 24 24 30 17 16 19 18 10 7 7 6 5 5 5 6 5 5 4 3 3 5 5 6 8 9 10 11 11 12 14 14 15 16 17 17 17 18 19 21 23 25
26 34 46 42 36 31 29 31 26 23 21 24 21 14 13 10 9 9 7 5 5 5 7 6 5 4 2 2 3 5 7 7 8 9 10 11 12 13 14 15 16 17 17 18 18 19 21 23 24
32 39 46 35 38 39 34 32 27 25 23 29 21 16 9 11 11 11 9 8 7 8 8 7 6 4 3 0 2 4 5 6 7 7 8 10 11 12 13 14 15 16 16 18 21 21 23 24 25
33 48 34 39 41 39 36 35 29 30 33 34 20 8 11 11 11 11 10 8 8 9 8 8 7 5 3 2 1 2 4 4 5 7 8 10 11 12 13 14 15 15 19 19 21 22 24 25 26
41 38 41 42 40 41 38 34 36 31 36 29 16 11 13 12 12 13 11 10 10 11 10 9 7 6 4 2 2 2 3 3 5 6 8 10 11 12 13 15 17 18 19 20 22 23 25 26 27
45 41 38 43 42 46 41 40 37 37 34 24 17 13 13 13 13 13 11 10 9 10 11 11 10 8 5 4 1 1 2 3 5 6 8 10 11 12 14 16 17 19 21 22 23 24 25 26 26
38 44 45 43 45 45 51 45 36 38 26 20 18 17 15 14 14 14 13 12 10 10 10 10 7 8 9 3 3 1 2 3 5 7 9 9 11 13 14 16 18 20 21 22 23 24 24 25 27
35 38 37 48 45 44 43 53 48 36 25 23 21 19 17 16 14 14 14 14 13 11 9 9 6 5 5 3 2 1 2 4 6 8 8 10 12 13 14 16 19 20 21 22 24 24 25 26 28
27 33 45 40 41 43 33 56 48 36 29 26 23 22 20 17 16 16 16 16 16 14 11 10 10 9 5 3 2 0 3 5 6 7 9 11 12 14 15 17 19 21 22 22 23 23 25 27 29
38 41 41 43 42 42 39 43 45 32 32 28 24 25 22 19 18 17 17 17 16 15 12 11 10 8 6 4 2 3 4 5 6 8 10 12 13 14 15 18 19 20 21 22 22 25 26 29 30
39 40 39 44 41 47 50 49 37 33 35 34 27 25 24 21 19 17 17 17 15 14 12 12 10 9 6 5 3 3 4 6 7 9 11 13 14 15 16 18 20 21 22 23 23 24 26 29 30
34 37 40 40 40 45 50 49 39 37 34 32 30 26 24 23 21 17 16 16 15 14 12 12 11 10 7 7 5 4 5 6 8 10 12 13 14 15 16 17 19 20 22 24 25 24 28 32 31
41 42 46 42 37 43 51 55 41 38 35 31 28 26 23 22 20 18 15 15 14 14 13 12 12 10 9 8 7 6 4 6 8 10 12 13 14 15 16 17 19 21 22 25 27 28 28 29 32
39 35 36 39 33 42 45 58 47 35 37 36 32 30 24 21 20 18 17 16 15 14 13 12 11 11 9 7 5 4 4 6 9 11 12 13 14 15 16 18 20 21 23 26 27 28 28 29 30
42 33 30 33 35 39 47 47 58 45 36 35 31 30 29 24 21 19 19 17 15 14 12 11 11 11 10 8 6 5 7 7 10 9 10 12 14 16 17 19 20 22 23 25 27 27 29 28 30
37 30 29 30 36 34 38 43 48 49 45 37 37 31 24 23 22 22 19 16 15 13 12 11 11 11 10 9 7 6 7 7 6 7 9 12 14 16 18 19 20 22 23 25 26 27 28 28 27
26 25 27 26 28 36 39 35 41 47 43 45 37 31 25 22 20 17 17 16 14 12 11 10 10 10 10 9 8 7 5 4 5 8 9 11 13 15 17 19 21 22 23 25 25 25 25 25 25
25 21 27 27 29 32 31 36 31 42 45 41 34 27 22 22 20 17 17 17 15 12 11 11 10 10 10 8 8 6 5 6 5 6 8 10 13 16 18 19 20 22 22 23 22 22 24 24 24
20 18 20 23 22 26 25 33 26 24 34 37 30 24 20 23 22 22 16 18 14 13 11 11 12 11 10 9 8 7 5 5 6 6 8 10 13 15 17 20 21 21 19 19 20 22 23 23 24
29 21 14 17 16 19 25 24 23 19 24 28 29 26 23 21 23 22 17 18 14 12 13 12 10 11 10 9 7 5 3 4 4 6 8 11 14 17 18 19 17 17 18 19 20 22 22 23 23
22 17 15 14 17 19 19 21 24 26 21 21 26 29 24 20 20 20 19 15 12 8 12 13 11 11 8 4 7 6 3 4 5 8 12 14 17 16 14 14 15 17 18 19 20 21 21 22 23
21 23 17 15 14 16 16 15 17 24 19 17 18 22 23 22 20 19 17 16 16 14 11 11 12 10 9 7 5 4 6 5 10 12 14 14 12 12 13 14 15 17 18 19 20 21 21 22 23
20 20 20 16 15 12 13 10 13 19 16 16 14 15 17 17 15 14 14 15 14 14 13 11 9 8 7 2 2 3 6 10 11 12 10 11 13 13 14 14 14 16 17 18 19 21 21 22 23
Wind_Direction
293 292 288 285 266 268 259 267 281 271 274 274 295 283 292 280 281 249 5 78 109 114 112 99 103 115 131 126 106 103 89 75 57 26 28 35 46 62 69 69 63 60 55 45 38 33 28 15 353
290 293 290 277 260 255 257 267 263 275 283 315 305 297 280 274 278 310 35 96 109 112 107 96 98 112 124 127 115 112 96 82 61 38 38 42 52 59 62 62 61 57 52 47 41 35 23 3 349
292 290 272 261 256 251 259 270 267 272 272 272 277 286 280 282 286 331 49 102 111 111 105 101 99 99 102 111 107 107 94 78 52 34 34 41 48 60 55 53 57 52 51 45 35 30 22 5 353
287 285 277 256 252 257 257 270 275 272 274 281 285 287 278 267 274 276 109 110 115 122 107 98 100 100 97 91 91 89 80 63 39 29 33 40 52 54 56 49 52 45 42 38 26 16 19 11 5
284 278 258 256 250 259 265 273 273 266 269 275 274 277 274 255 299 116 118 118 122 127 120 104 101 100 98 94 89 83 72 57 41 29 36 42 50 52 49 46 40 40 39 31 16 6 7 10 7
271 271 255 251 250 257 264 268 270 263 264 267 274 275 267 255 158 160 146 124 129 133 142 127 111 104 98 94 85 73 64 58 50 47 48 51 50 47 43 40 38 37 31 27 19 10 8 7 1
267 264 253 252 253 257 260 267 265 268 259 259 277 268 265 244 216 164 154 137 134 144 156 158 136 114 100 90 78 64 51 49 55 60 59 53 49 47 43 38 36 35 32 34 26 13 8 3 3
265 266 256 253 252 252 260 265 267 268 261 268 264 263 255 229 193 171 168 157 156 157 157 155 149 138 107 78 66 55 49 53 62 62 57 52 47 41 38 36 36 37 43 50 48 35 20 9 0
261 261 249 247 253 255 263 260 264 270 266 255 259 270 259 176 171 172 178 204 192 188 170 168 159 151 131 83 55 53 64 64 59 53 51 44 34 34 38 42 40 38 37 43 43 33 16 9 5
251 256 251 255 252 254 262 257 258 257 263 248 256 264 164 174 173 178 182 180 179 174 180 181 172 158 152 216 54 56 62 61 47 33 28 21 28 42 38 46 53 39 50 32 6 8 3 1 357
252 251 259 253 251 252 261 256 255 253 253 244 247 219 187 193 197 194 197 178 172 158 172 183 170 168 166 203 95 53 58 18 358 24 27 15 30 28 32 25 35 42 13 12 8 9 6 5 3
252 256 252 250 255 250 256 257 250 250 248 252 243 191 192 202 199 196 193 176 163 157 153 156 162 160 158 159 138 83 328 23 31 31 17 6 7 10 8 20 14 11 9 10 8 9 5 2 2
251 255 254 250 251 248 252 251 250 246 247 255 237 214 203 211 216 214 202 193 173 162 156 149 147 153 157 136 182 264 332 355 0 10 359 349 349 358 360 1 5 3 6 6 5 6 5 4 3
256 252 251 251 250 250 243 248 251 246 256 248 223 220 217 214 208 211 199 191 189 174 166 158 164 149 145 163 141 64 345 1 342 335 339 350 348 353 359 357 356 359 3 5 4 5 7 6 3
249 251 253 247 246 245 244 242 240 242 241 235 225 225 222 227 211 203 206 208 209 213 192 175 191 205 189 201 169 119 6 333 333 324 336 344 348 358 0 359 359 359 1 2 3 6 9 6 3
255 250 247 249 244 240 238 237 237 238 237 232 227 227 227 226 215 220 223 223 223 222 209 208 231 236 217 183 192 267 311 317 330 332 337 346 353 358 359 1 359 359 359 3 6 7 4 4 3
246 245 244 247 247 240 235 240 233 232 231 230 228 228 227 227 228 227 228 228 221 222 212 211 224 216 198 200 243 273 300 318 322 330 339 346 350 354 357 357 358 359 359 358 2 1 360 357 356
235 241 245 246 250 239 232 238 238 228 232 233 230 229 227 227 229 228 227 228 224 219 213 213 212 193 195 213 228 271 301 311 322 333 341 347 352 357 359 357 356 356 355 354 356 358 358 355 353
240 241 244 252 259 237 228 235 236 220 230 229 231 227 227 229 232 228 222 223 224 220 209 199 199 188 197 205 209 253 288 309 324 335 339 345 350 355 358 359 360 358 356 354 352 353 348 348 354
237 236 244 254 257 234 230 229 234 227 226 227 226 224 226 226 228 227 219 218 215 214 211 201 195 192 206 214 241 262 283 313 326 335 343 348 352 355 358 359 358 358 356 353 351 347 346 349 352
226 237 248 250 259 240 228 223 230 232 231 231 232 229 226 223 222 223 222 217 217 215 209 201 196 195 204 211 229 258 305 318 323 331 340 348 354 357 359 359 357 356 354 349 350 349 347 345 349
225 234 248 255 248 233 221 229 228 228 228 229 231 230 230 227 228 225 223 224 218 215 216 213 212 209 214 212 210 209 272 290 309 328 343 349 354 356 356 356 355 353 354 352 350 352 348 347 343
227 235 253 260 241 234 221 229 227 226 231 233 229 229 227 230 228 232 228 222 227 220 222 228 226 228 225 226 225 248 276 304 322 337 346 349 350 354 354 355 356 355 356 354 350 349 349 351 352
225 245 257 256 236 233 226 227 229 220 223 228 230 228 228 228 227 223 227 219 223 224 224 229 226 234 239 240 249 248 249 277 306 322 330 339 348 352 354 356 355 352 354 350 352 352 355 357 359
222 248 236 237 230 234 227 227 239 227 222 230 232 226 221 219 215 216 219 217 216 223 226 231 233 241 255 245 259 254 267 284 297 318 331 339 341 344 347 351 351 348 350 354 360 3 1 360 360
215 236 239 230 234 231 224 227 235 237 225 229 234 224 212 222 224 225 219 220 221 235 238 239 243 245 252 264 264 274 285 296 311 325 334 340 343 346 352 347 346 348 358 5 3 3 2 1 359
217 237 259 246 252 234 230 242 240 236 226 227 226 220 218 223 229 229 226 226 237 239 247 244 245 254 261 264 266 273 283 302 319 345 352 345 346 345 345 348 358 1 2 4 1 0 359 359 358
224 228 249 253 237 232 238 235 236 228 232 224 222 223 224 225 227 232 236 238 246 250 250 253 258 250 257 262 277 287 312 335 350 350 339 338 338 342 355 2 2 359 1 360 359 359 360 357 355
227 231 248 250 248 242 234 244 251 230 231 224 225 226 227 226 233 235 238 246 255 258 258 261 265 257 264 272 256 273 311 345 341 338 330 336 352 358 354 358 357 357 357 358 358 355 354 352 350
231 229 226 240 238 246 242 248 259 236 234 227 229 226 226 228 232 239 246 247 256 258 262 261 261 259 272 265 211 334 339 332 330 339 350 348 350 354 355 359 2 358 356 354 351 349 348 347 346